SCOUT A DEB, 2140

Orbit data source: Space-Track

SCOUT A DEB, 2140 is space debris in LEO originally from a launch on Fri, 28 Jan 1966 UTC launched from the Air Force Western Test Range (AFWTR). Debris objects in space refer to the collection of defunct objects orbiting the Earth. Examples of debris include non-operational satellites, rocket bodies, and fragments generated from explosions, collisions, or faulty payload assembly.

Loading next visibility...
Identifier
2140, 1966-005C
Orbit
LEO
Last TLE update
1 day ago
Origin
Manufacturer
Unknown
Mission
Spacecraft
Bus & Motor
Unknown
Mass
Unknown
Launch date (UTC)
1966-01-28 (59 years ago)
Launch vehicle
Unknown
Launch site
Air Force Western Test Range (AFWTR)
Object type
Payload
Rocket body
Debris
Shape & HBR
Unknown
Radar Cross Section
Small (<0.1 m²)

Expand to show TLE details & history

TLE from 1 day ago
0 SCOUT A DEB
1 02140U 66005C   25128.20911745  .00000151  00000-0  17285-3 0  9994
2 02140  89.9507  52.4696 0314497 274.8718  81.6597 13.48233876903883
Epoch: 2025-05-08T05:01Z
Definitive object data (Epoch: 2025-05-08T05:01:07.747Z)
Latitude
-0.00002°
Longitude
110.90442°
Altitude
1,054.961 km
Speed
7.338 km/s
True Right ascension
03h 29m 52s
True Declination
0° 00' 00"
Sunlit
Object was in daylight at TLE epoch
Visualization TLE readout
Latitude
-13.54161°
Longitude
110.8871°
Altitude
1,016.857 km
Speed
7.376 km/s
Apparent Right ascension
03h 37m 41s
Apparent Declination
-25° 37' 16"
Sunlit
Object is in daylight
Visualization observer readout
Local Sidereal Time
15:49:15
Azimuth
10.469° NNE
Elevation
-75.502°
Doppler factor
1
Orbital elements
Apogee altitude
1,310.236 km
Perigee altitude
841.387 km
Semi-major axis
7,453.949 km
Eccentricity
0.0314497
Inclination
89.9507°
RAAN
52.4696°
Arg. of periapsis
274.8718°
True anomaly
85.24356°
Mean anomaly
81.6597°
Eccentric anomaly
83.44987°
Mean motion
3.37259 °/min
BSTAR
0.00017285
Orbital period
106.74 mins
Loading maneuver chart data...
Loading SW <> Apogee altitude chart data...
Loading historical data...
Loading historical data...
Loading historical data...
Loading historical data...
Loading historical data...
Loading historical data...
Loading historical data...

SCOUT A DEB Visibility forecast

Observer location: undefined°, undefined°

Span
Click to sort rows by Start time (UTC) header in descending order
Start Az.
Max El. time (UTC)
Max El. Az.
Max El.
End time (UTC)
End Az.
11 mins2025-05-09 08:21:13.071Z340.285° N2025-05-09 08:27:13.071Z281.071° WNW27.935°2025-05-09 08:32:13.071Z230.379° WSW
12 mins2025-05-09 18:32:13.071Z146.327° SSE2025-05-09 18:38:13.071Z68.604° E36.246°2025-05-09 18:44:13.071Z10.945° NNE
11 mins2025-05-09 20:20:13.071Z228.369° WSW2025-05-09 20:24:13.071Z273.842° WNW28.098°2025-05-09 20:31:13.071Z339.723° N
9 mins2025-05-10 05:45:13.071Z36.417° NE2025-05-10 05:49:13.071Z73.243° E21.079°2025-05-10 05:54:13.071Z121.813° SE
9 mins2025-05-10 07:31:13.071Z353.966° N2025-05-10 07:37:13.071Z259.224° W42.388°2025-05-10 07:40:13.071Z206.12° SW
|